#timestamp,LO_Frequency,Hit,StdDev 
1512896415.4,286047001.1,N
1512896435.2,286046998.7,N
1512896455.1,286047006.0,N
1512896456.0,286047006.0,N
1512896475.8,286047007.3,N
1512896495.6,286047006.7,N
1512896515.5,286047010.3,N
1512896535.3,286047007.2,N
1512896555.1,286047006.8,N
1512896575.9,286047005.6,N
1512896595.7,286047001.5,N
1512896615.5,286047002.6,N
1512896635.3,286047007.3,N
1512896655.2,286047004.8,N
1512896675.0,286047003.5,N
1512896675.9,286047003.5,N
1512896695.7,286047004.9,N
1512896715.6,286047008.2,N
1512896735.4,286047010.0,N
1512896755.2,286047008.7,N
1512896775.1,286047005.9,N
1512896776.0,286047005.9,N
1512896795.8,286047004.2,N
1512896815.6,286047000.5,N
1512896835.5,286046996.5,N
1512896855.3,286046993.6,N
1512896875.1,286046989.1,N
1512896895.9,286046987.0,N
1512896915.7,286046984.1,N
1512896935.5,286046983.4,N
1512896955.3,286046982.5,N
1512896975.2,286046982.4,N
1512896995.0,286046984.3,N
1512896995.9,286046984.3,N
1512897015.7,286046985.8,N
1512897035.6,286046987.6,N
1512897055.4,286046988.4,N
1512897075.2,286046986.7,N
1512897095.1,286046986.8,N
1512897096.0,286046986.8,N
1512897115.8,286046988.9,N
1512897135.6,286046987.0,N
1512897155.5,286046987.7,N
1512897175.3,286046991.0,N
1512897195.1,286046992.1,N
1512897215.9,286046995.6,N
1512897235.7,286046993.2,N
1512897255.5,286046986.9,N
1512897275.4,286046983.7,N
1512897295.2,286046984.6,N
1512897315.0,286046986.5,N
1512897315.9,286046986.5,N
1512897335.8,286046993.0,N
1512897355.6,286046994.1,N
1512897375.4,286046996.3,N
1512897395.2,286046997.9,N
1512897415.1,286046995.3,N
1512897416.0,286046995.3,N
1512897435.8,286046997.7,N
1512897455.6,286046997.7,N
1512897475.5,286046994.0,N
1512897495.3,286046993.2,N
1512897515.1,286046988.1,N
1512897535.9,286046984.6,Y
1512897555.7,286046994.3,P
1512897575.5,286046991.8,P
1512897595.4,286046988.9,P
1512897615.2,286046985.7,Y
1512897635.0,286046993.1,P
1512897635.9,286046993.1,P
1512897655.8,286046988.8,P
1512897675.6,286046992.8,Y
1512897695.4,286047005.5,P
1512897715.3,286047006.3,N
1512897735.1,286047009.0,N
1512897755.8,286047010.0,N
1512897775.7,286047008.7,N
1512897795.5,286047007.7,N
1512897815.3,286047011.6,N
1512897835.2,286047014.8,N
1512897855.9,286047015.1,N
1512897875.7,286047015.2,N
1512897895.6,286047015.0,N
1512897915.4,286047011.8,N
1512897935.2,286047010.3,N
1512897955.0,286047009.7,N
1512897956.0,286047009.7,N
1512897975.8,286047010.0,N
1512897995.6,286047010.7,N
1512898015.4,286047006.1,N
1512898035.3,286047006.8,N
1512898055.1,286047009.6,N
1512898075.8,286047014.2,N
1512898095.7,286047014.4,N
1512898115.5,286047018.4,Y
1512898135.3,286047010.1,P
1512898155.2,286047010.6,P
1512898175.9,286047009.3,P
1512898195.7,286047010.8,Y
1512898215.6,286046999.3,P
1512898235.4,286046999.6,N
1512898255.2,286046995.1,N
1512898275.1,286046992.3,N
1512898276.0,286046992.3,N
1512898295.8,286046990.7,N
1512898315.6,286046989.4,N
1512898335.5,286046987.1,N
1512898355.3,286046991.4,N
1512898375.1,286046992.9,N
1512898395.9,286046993.6,N
1512898415.7,286046996.7,N
1512898435.5,286047000.7,N
1512898455.3,286047005.9,N
1512898475.2,286047005.1,N
1512898495.0,286047003.1,N
1512898495.9,286047003.1,N
1512898515.7,286047005.7,N
1512898535.6,286047007.8,N
1512898555.4,286047007.9,N
1512898575.2,286047010.2,N
1512898595.1,286047008.8,N
1512898596.0,286047008.8,N
1512898615.8,286047005.3,N
1512898635.6,286047003.7,N
1512898655.5,286047002.9,N
1512898675.3,286047008.3,N
1512898695.1,286047009.2,N
1512898715.8,286047005.6,N
1512898735.7,286047004.1,N
1512898755.5,286047004.4,N
1512898775.3,286047000.1,N
1512898795.2,286046998.2,N
1512898815.9,286047004.1,N
1512898835.7,286047007.0,N
1512898855.6,286047009.9,N
1512898875.4,286047007.7,N
1512898895.2,286047006.7,N
1512898915.1,286047008.8,N
1512898916.0,286047008.8,N
1512898935.8,286047012.5,Y
1512898955.6,286047013.8,P
1512898975.5,286047014.3,P
1512898995.3,286047022.5,P
1512899015.1,286047028.8,Y
1512899035.9,286047012.3,P
1512899055.7,286047012.3,P
1512899075.5,286047006.4,P
1512899095.4,286047009.5,Y
1512899115.2,286046999.2,P
1512899135.0,286047000.8,N
1512899135.9,286047000.8,N
1512899155.8,286046997.4,N
1512899175.6,286046996.1,N
1512899195.4,286046996.7,N
1512899215.3,286046998.7,N
1512899235.1,286046997.7,N
1512899236.0,286046997.7,N
1512899255.8,286046994.9,N
1512899275.7,286046998.7,N
1512899295.5,286046999.6,N
1512899315.3,286046998.7,N
1512899335.1,286046998.4,N
1512899355.9,286047000.9,N
1512899375.7,286047000.5,N
1512899395.5,286047001.5,N
1512899415.4,286046999.7,N
1512899435.2,286047001.8,N
1512899455.0,286047001.0,N
1512899455.9,286047001.0,N
1512899475.8,286046996.8,N
1512899495.6,286047002.4,N
1512899515.4,286047003.1,N
1512899535.3,286047003.4,N
1512899555.1,286046999.7,N
1512899556.0,286046999.7,N
1512899575.8,286047001.7,N
1512899595.7,286046998.5,N
1512899615.5,286046997.1,N
1512899635.3,286046992.3,Y
1512899655.2,286046991.1,P
1512899675.9,286046985.3,P
1512899695.7,286046987.0,N
1512899715.5,286046990.6,N
1512899735.4,286046994.7,N
1512899755.2,286046991.8,N
1512899775.0,286046987.3,N
1512899775.9,286046987.3,N
1512899795.8,286046989.1,N
1512899815.6,286046987.2,Y
1512899835.4,286046998.1,P
1512899855.3,286047001.4,N
1512899875.1,286047002.1,N
1512899895.8,286046998.5,N
1512899915.7,286046998.2,N
1512899935.5,286047002.6,N
1512899955.3,286047000.4,N
1512899975.2,286046997.7,N
1512899995.9,286046994.6,N
